Retour au catalogue

COSMOS 1275 DEB

ActifPO
NORAD 12962·DEBRIS·🇷🇺 Russia

Lancé Jun 4, 1981 depuis Plesetsk Cosmodrome

Loading…

Prochains Passages (prochaines 24 heures)

TLE

FraisSource: Space-Track

Époque: Sep 14, 2026, 09:52 UTC

1 12962U 81053EH  26257.41153068  .00000988  00000-0  62109-3 0  9993
2 12962  82.9610 302.6845 0026712 211.3465 148.6116 14.03328178273024

Suivez COSMOS 1275 DEB en temps réel avec AllMySat

Download on the App Store